Flag for U.S.A. Weather past 2 weeks in Everett, Washington, U.S.A.

Now
63 °F

Passing clouds.


Feels Like: 63 °F
Forecast: 59 / 68 °F
Wind: No wind

Location: Snohomish County Airport

Current Time: Aug 28, 2015 at 11:39:55 PM

Latest Report: Aug 28, 2015 at 10:53 PM


Visibility: 10 mi

Pressure: 29.75 "Hg

Humidity: 81%

Dew point: 57 °F

Location of EverettLocation

Historic Weather in Everett — Graph

°F

Everett temperature yesterday

Maximum temperature yesterday: 80 °F (at 4:53 PM)
Minimum temperature yesterday: 61 °F (at 5:53 AM)
Average temperature yesterday: 69 °F

Past Weeks' High & Low Weather Summary

 TemperatureHumidityPressure
High85 °F (Aug 19, 3:53 PM)93% (Aug 14, 4:00 PM)30.28 "Hg (Aug 14, 4:00 PM)
Low54 °F (Aug 16, 5:53 AM)29% (Aug 27, 4:53 PM)29.80 "Hg (Aug 28, 9:53 PM)
Average64 °F66%30.03 "Hg
* Reported Aug 13 9:53 PM — Aug 28 9:53 PM, Everett, Weather by CustomWeather, © 2015

Note: Actual official high and low records may vary slightly from our data, if they occured in-between our weather recording intervals... More about our weather records

Advertising

Everett weather history for previous 24 hours

 ConditionsComfort  
Time TempWeatherWind HumidityBarometerVisibility
9:53 PM
Fri, Aug 28
65 °FLight rain. Overcast.No wind73%29.80 "Hg10 mi
8:53 PM66 °FScattered clouds.No wind68%29.81 "Hg10 mi
7:53 PM65 °FScattered clouds.No wind73%29.83 "Hg10 mi
6:53 PM66 °FLight rain. Mostly cloudy.No wind68%29.85 "Hg10 mi
5:53 PM68 °FMostly cloudy.No wind63%29.86 "Hg10 mi
4:53 PM70 °FSunny.3 mph61%29.88 "Hg10 mi
3:53 PM73 °FPartly sunny.8 mph51%29.90 "Hg10 mi
2:53 PM73 °FPartly sunny.8 mph53%29.92 "Hg10 mi
1:53 PM71 °FPassing clouds.10 mph55%29.94 "Hg10 mi
12:53 PM71 °FOvercast.12 mph57%29.95 "Hg10 mi
11:53 AM70 °FOvercast.15 mph57%29.95 "Hg10 mi
10:53 AM68 °FPassing clouds.17 mph63%29.96 "Hg10 mi
9:53 AM65 °FOvercast.12 mph68%29.97 "Hg10 mi
8:53 AM63 °FScattered clouds.12 mph73%29.97 "Hg10 mi
7:53 AM61 °FBroken clouds.10 mph81%29.98 "Hg10 mi
6:53 AM61 °FMostly cloudy.15 mph81%29.97 "Hg10 mi
5:53 AM61 °FLight rain. Mostly cloudy.12 mph78%29.98 "Hg8 mi
4:53 AM64 °FOvercast.7 mph58%29.98 "Hg10 mi
3:53 AM63 °FOvercast.No wind60%29.97 "Hg10 mi
2:53 AM63 °FPassing clouds.No wind63%29.97 "Hg10 mi
1:53 AM63 °FPassing clouds.5 mph63%29.97 "Hg10 mi
12:53 AM62 °FPassing clouds.7 mph70%29.97 "Hg10 mi
11:53 PM
Thu, Aug 27
64 °FClear.6 mph63%29.97 "Hg10 mi
Weather by CustomWeather, © 2015

See weather overviewHow to use our weather pages